[[{"header":{"parameterUnit":"m.s-1","parameterCategory":1,"la1":30.2991,"la2":30.254,"lo1":-89.0895,"lo2":-89.0444,"dy":0.0017,"dx":0.0017,"nx":28,"ny":28,"refTime":"2023-11-06T03:00:00:Z","depth":0,"parameterNumber":2,"parameterNumberName":"U-component_of_WINDS"},"data":[0,0,0,0,0,0,0,0,0,0,0,0,0,0,0,0,0,0,0,0,0,0,0,0,0,0,0,0,0,0,0,0,0,0,0,0,0,0,0,0,0,0,0,0,0,0,0,0,0,0,0,0,0,0,0,0,0,0,1.3415,1.3417,0,1.3572,1.3574,1.3575,1.3615,1.3614,1.3612,1.3612,1.3775,1.378,1.3785,0,0,0,0,0,0,0,0,0,0,0,0,0,1.3154,1.3158,1.3415,1.3417,1.3419,1.3571,1.3574,1.3576,1.3615,1.3613,1.3612,1.3611,1.3773,1.3779,1.3786,0,0,0,0,0,0,0,0,0,0,0,0,0,1.3284,1.316,1.3415,1.3457,1.3462,1.3571,1.3574,1.3576,1.3615,1.3613,1.3612,1.3611,1.3771,1.3779,1.3787,1.3866,0,0,1.3811,1.3814,0,0,0,0,0,0,0,0,1.3277,1.3294,1.3449,1.3454,1.346,1.3572,1.3541,1.3674,1.3615,1.3557,1.3612,1.361,1.3709,1.3722,1.3755,1.3874,1.3881,1.3812,1.3816,1.382,1.3822,0,0,0,0,0,0,0,1.3268,1.3287,1.3477,1.3451,1.3458,1.3469,1.3486,1.3567,1.364,1.3562,1.3565,1.3583,1.3712,1.3747,1.3759,1.3883,1.3811,1.3818,1.3823,1.3826,1.4076,1.4078,0,0,0,0,0,0,1.3251,1.328,1.3472,1.3482,1.3363,1.3475,1.3494,1.3538,1.3639,1.3653,1.3584,1.3584,1.3734,1.3749,1.3765,1.3865,1.382,1.3827,1.3832,1.4074,1.4077,1.4079,0,0,0,0,0,0,1.3245,1.3268,1.3466,1.3382,1.3408,1.3481,1.353,1.3542,1.3577,1.3656,1.3669,1.3606,1.3733,1.3753,1.384,1.3871,1.3831,1.3838,1.4072,1.4075,1.4078,1.4065,0,0,0,0,0,0,1.3238,1.3265,1.3295,1.3382,1.3412,1.3538,1.3532,1.3546,1.359,1.3592,1.368,1.3693,1.3734,1.3828,1.3848,1.3881,1.3844,1.407,1.4073,1.4077,1.4063,1.4067,1.407,0,0,0,0,0,1.3228,1.3286,1.3297,1.332,1.3451,1.354,1.3557,1.3602,1.3592,1.3624,1.3674,1.369,1.3864,1.3837,1.386,1.3895,1.4068,1.4072,1.4076,1.4061,1.4066,1.407,0,0,0,0,0,0,1.3202,1.3298,1.3311,1.3398,1.346,1.3546,1.3587,1.3605,1.3672,1.3671,1.3724,1.3744,1.3828,1.3871,1.3838,1.3978,1.3966,1.3975,1.3947,1.3952,1.3956,1.3944,1.3851,0,0,0,0,0,1.3206,1.3269,1.335,1.342,1.345,1.3513,1.3553,1.3582,1.3649,1.3676,1.3733,1.3798,1.3868,1.3912,1.3981,1.4069,1.409,1.4105,1.4109,1.4112,1.4119,1.417,1.4178,1.4092,1.4092,1.4092,0,0,1.3215,1.3276,1.3313,1.3416,1.3467,1.3533,1.3535,1.3603,1.3653,1.3687,1.3772,1.3817,1.3893,1.3981,1.4023,1.4019,1.4147,1.4117,1.4118,1.4124,1.4175,1.4183,1.419,1.4095,1.4095,1.4094,0,0,1.3266,1.3318,1.3382,1.3433,1.3511,1.3553,1.3568,1.3651,1.3682,1.3768,1.3795,1.3855,1.3974,1.4027,1.407,1.4142,1.416,1.4163,1.4182,1.4231,1.4238,1.4244,1.4271,1.4279,1.417,1.417,1.417,0,1.3268,1.3367,1.3412,1.348,1.3525,1.3558,1.3624,1.3672,1.3769,1.38,1.3794,1.3944,1.3997,1.4099,1.4117,1.415,1.417,1.4153,1.4233,1.424,1.4247,1.4272,1.4282,1.417,1.417,1.417,1.417,0,1.3366,1.3434,1.3477,1.3568,1.3618,1.3684,1.3741,1.3787,1.3812,1.3854,1.3943,1.4009,1.4091,1.4117,1.4143,1.4223,1.4219,1.4222,1.4212,1.4254,1.4279,1.4289,1.417,1.417,1.417,1.417,0,0,1.3404,1.352,1.3535,1.3578,1.3666,1.372,1.3789,1.3869,1.3907,1.3973,1.4032,1.4132,1.4136,1.4185,1.4217,1.426,1.4313,1.4259,1.4261,1.4267,1.4407,1.4403,1.4414,1.4325,1.4328,1.4329,1.4401,0,1.3466,1.3588,1.3632,1.3733,1.3798,1.383,1.389,1.3952,1.3994,1.4055,1.4102,1.4172,1.4172,1.4202,1.4246,1.4297,1.4342,1.4293,1.4382,1.4385,1.4362,1.4427,1.4424,1.4488,1.4411,1.4412,1.4414,0,1.3554,1.3621,1.3728,1.381,1.3838,1.3891,1.3968,1.4026,1.4097,1.4125,1.4179,1.4208,1.4283,1.4267,1.4371,1.4336,1.4376,1.4407,1.441,1.442,1.4402,1.4439,1.4509,1.4519,1.4429,1.4428,1.4427,0,1.3572,1.3688,1.3768,1.3803,1.39,1.3936,1.3979,1.4048,1.4094,1.4162,1.4192,1.4268,1.431,1.4368,1.4417,1.4402,1.4517,1.4506,1.4543,1.4541,1.4565,1.4563,1.4643,1.459,1.459,1.459,1.459,0,1.3636,1.3701,1.3777,1.3825,1.3899,1.395,1.4022,1.4066,1.4128,1.4187,1.4221,1.4276,1.4337,1.44,1.444,1.452,1.4538,1.4563,1.4573,1.4561,1.4557,1.4587,1.4584,1.4593,1.4592,1.4592,1.4591,0,1.3668,1.3721,1.381,1.3895,1.3918,1.3968,1.4042,1.4091,1.4135,1.4209,1.423,1.4298,1.4375,1.4429,1.4528,1.4554,1.4641,1.465,1.4616,1.4621,1.4655,1.4651,1.4757,1.4774,1.4709,1.471,1.471,0,1.3705,1.3756,1.3846,1.3888,1.393,1.3997,1.4043,1.4095,1.4143,1.4228,1.4267,1.4346,1.4411,1.4532,1.4591,1.4667,1.4679,1.4711,1.469,1.4676,1.468,1.4676,1.4682,1.4713,1.4714,1.4714,1.4714,0,1.3767,1.3791,1.3856,1.3932,1.3986,1.4048,1.4111,1.4143,1.4206,1.4258,1.4336,1.4387,1.4487,1.4565,1.4647,1.4692,1.4714,1.472,1.4733,1.4721,1.4699,1.4712,1.4624,1.4718,1.4717,1.4717,1.4717,1.4717,1.3803,1.385,1.3921,1.3993,1.4045,1.4103,1.4154,1.4204,1.427,1.4355,1.4382,1.4463,1.4534,1.4646,1.4692,1.4757,1.4756,1.4774,1.4779,1.4782,1.4782,1.4689,1.4772,1.4772,1.4772,1.4772,1.4772,0,1.3866,1.3914,1.398,1.4066,1.4123,1.4139,1.4209,1.4256,1.4326,1.4391,1.4454,1.4545,1.462,1.4686,1.4765,1.4804,1.4816,1.4823,1.4821,1.4831,1.4778,1.476,1.4812,1.4812,1.4812,1.4812,1.4812,1.4812,1.3906,1.3986,1.4019,1.4126,1.4173,1.4252,1.4291,1.4345,1.4397,1.4495,1.4558,1.46,1.4666,1.475,1.482,1.4838,1.4865,1.487,1.4889,1.4839,1.4834,1.483,1.4813,1.4875,1.4875,1.4937,1.4937,1.4938]},{"header":{"parameterUnit":"m.s-1","parameterCategory":1,"la1":30.2991,"la2":30.254,"lo1":-89.0895,"lo2":-89.0444,"dy":0.0017,"dx":0.0017,"nx":28,"ny":28,"refTime":"2023-11-06T03:00:00:Z","depth":0,"parameterNumber":3,"parameterNumberName":"V-component_of_WINDS"},"data":[0,0,0,0,0,0,0,0,0,0,0,0,0,0,0,0,0,0,0,0,0,0,0,0,0,0,0,0,0,0,0,0,0,0,0,0,0,0,0,0,0,0,0,0,0,0,0,0,0,0,0,0,0,0,0,0,0,0,3.1003,3.1003,0,3.0963,3.0962,3.0962,3.0969,3.097,3.097,3.0971,3.092,3.0918,3.0916,0,0,0,0,0,0,0,0,0,0,0,0,0,3.1078,3.1077,3.1003,3.1003,3.1002,3.0963,3.0962,3.0962,3.0969,3.097,3.097,3.0971,3.0921,3.0919,3.0916,0,0,0,0,0,0,0,0,0,0,0,0,0,3.1042,3.1076,3.1003,3.1001,3.1001,3.0963,3.0962,3.0961,3.0968,3.097,3.0971,3.0972,3.0922,3.0919,3.0916,3.0875,0,0,3.0906,3.0905,0,0,0,0,0,0,0,0,3.1044,3.104,3.1002,3.1001,3.1001,3.0972,3.097,3.0932,3.0968,3.098,3.0971,3.0972,3.0936,3.0932,3.0922,3.0872,3.087,3.0906,3.0904,3.0903,3.0902,0,0,0,0,0,0,0,3.1047,3.1041,3.0987,3.1001,3.1,3.1,3.0996,3.0963,3.0952,3.0979,3.098,3.0975,3.0936,3.0924,3.092,3.0869,3.0906,3.0904,3.0902,3.09,3.0784,3.0782,0,0,0,0,0,0,3.1051,3.1043,3.0988,3.0986,3.1026,3.0997,3.0993,3.098,3.0953,3.095,3.0975,3.0976,3.0929,3.0924,3.0919,3.0869,3.0903,3.09,3.0898,3.0785,3.0783,3.0782,0,0,0,0,0,0,3.1053,3.1046,3.099,3.1015,3.1008,3.0995,3.098,3.0979,3.0967,3.0949,3.0946,3.0966,3.093,3.0923,3.0886,3.0867,3.0899,3.0896,3.0786,3.0784,3.0783,3.0768,0,0,0,0,0,0,3.1055,3.1047,3.1033,3.1014,3.1006,3.0961,3.0979,3.0977,3.0963,3.0965,3.094,3.0937,3.093,3.0891,3.0883,3.0863,3.0894,3.0788,3.0786,3.0783,3.077,3.0766,3.0762,0,0,0,0,0,3.1058,3.1029,3.1032,3.1026,3.0989,3.096,3.0954,3.095,3.0962,3.0946,3.0935,3.0938,3.0871,3.0887,3.0878,3.0857,3.0789,3.0786,3.0783,3.0772,3.0767,3.0763,0,0,0,0,0,0,3.1042,3.1026,3.103,3.0995,3.0979,3.0961,3.0942,3.0945,3.0923,3.0925,3.0917,3.0911,3.0874,3.0862,3.0881,3.0816,3.0831,3.0826,3.0825,3.082,3.0816,3.0819,3.0891,0,0,0,0,0,3.1035,3.1015,3.1001,3.0971,3.0963,3.0954,3.0941,3.0939,3.0921,3.0913,3.0899,3.0878,3.0853,3.0836,3.0811,3.0769,3.0762,3.075,3.0746,3.0743,3.0738,3.0714,3.0708,3.0773,3.0773,3.0773,0,0,3.1019,3.1008,3.0995,3.0968,3.0955,3.0932,3.0948,3.0923,3.0905,3.0908,3.0874,3.0862,3.0839,3.0799,3.0781,3.0788,3.0719,3.0739,3.0737,3.0734,3.0711,3.0704,3.0699,3.0771,3.0771,3.0771,0,0,3.0979,3.0969,3.0943,3.0931,3.0913,3.0907,3.0901,3.0883,3.0876,3.0842,3.0844,3.0821,3.0777,3.0761,3.0746,3.0701,3.0702,3.0692,3.0671,3.0648,3.0642,3.0638,3.0621,3.0615,3.0688,3.0688,3.0688,0,3.0961,3.0929,3.0929,3.0904,3.0891,3.0897,3.0869,3.0856,3.0829,3.0819,3.0828,3.0774,3.0758,3.0715,3.0704,3.0692,3.0683,3.0695,3.0644,3.0639,3.0635,3.0618,3.0612,3.0687,3.0687,3.0687,3.0688,0,3.0907,3.0885,3.0866,3.0844,3.0828,3.0802,3.0795,3.0779,3.0779,3.0771,3.0735,3.0718,3.0689,3.0679,3.0677,3.0634,3.0639,3.0646,3.0661,3.0628,3.0612,3.0605,3.0686,3.0686,3.0686,3.0687,0,0,3.0855,3.0834,3.0827,3.0817,3.0798,3.0779,3.0752,3.0728,3.0714,3.0695,3.0671,3.0635,3.0641,3.0625,3.0621,3.0601,3.0564,3.061,3.0609,3.0601,3.0515,3.0509,3.0502,3.0566,3.0564,3.0563,3.0517,0,3.0812,3.0768,3.0767,3.0726,3.0704,3.071,3.0686,3.067,3.0662,3.064,3.063,3.0604,3.0616,3.0606,3.0586,3.0573,3.0547,3.0576,3.054,3.0539,3.0546,3.0494,3.0488,3.0445,3.051,3.0509,3.0509,0,3.0756,3.074,3.0697,3.0681,3.0672,3.0651,3.0629,3.0609,3.059,3.0586,3.0569,3.0568,3.0537,3.0555,3.0511,3.0532,3.0517,3.0508,3.0506,3.0502,3.0521,3.0487,3.0431,3.0424,3.0499,3.05,3.05,0,3.0722,3.0688,3.0658,3.0649,3.0631,3.0616,3.0606,3.0589,3.0575,3.0554,3.0544,3.0519,3.0504,3.0484,3.0475,3.0489,3.0432,3.0448,3.0425,3.0425,3.0412,3.0413,3.0352,3.0404,3.0404,3.0404,3.0404,0,3.0674,3.0647,3.0643,3.0624,3.0594,3.0592,3.0561,3.0552,3.0537,3.0515,3.0517,3.0495,3.0486,3.0462,3.0455,3.0419,3.0413,3.0406,3.0404,3.0406,3.0407,3.0395,3.0397,3.0402,3.0403,3.0403,3.0403,0,3.0629,3.0626,3.0594,3.0579,3.0575,3.0553,3.0539,3.052,3.0513,3.0485,3.0478,3.0466,3.0438,3.0428,3.0393,3.0388,3.0347,3.0348,3.0354,3.0354,3.0331,3.0333,3.0259,3.0249,3.0309,3.0308,3.0308,0,3.0599,3.0579,3.0563,3.0551,3.0542,3.052,3.0506,3.0503,3.0488,3.0465,3.0448,3.0422,3.04,3.0355,3.034,3.0313,3.0313,3.0289,3.0309,3.0311,3.0312,3.0313,3.031,3.0285,3.0285,3.0284,3.0284,0,3.0544,3.0544,3.0526,3.0506,3.049,3.0474,3.0458,3.0447,3.0441,3.0423,3.0396,3.038,3.0346,3.0318,3.0291,3.0278,3.0279,3.0278,3.0271,3.0272,3.0276,3.0273,3.0343,3.0279,3.028,3.028,3.028,3.028,3.0505,3.0488,3.0475,3.0454,3.0443,3.0428,3.041,3.0402,3.038,3.0355,3.0353,3.0324,3.0304,3.0269,3.0255,3.023,3.0236,3.0226,3.0223,3.022,3.0218,3.0281,3.0224,3.0224,3.0225,3.0225,3.0225,0,3.0451,3.0443,3.0424,3.0404,3.0387,3.0393,3.0376,3.036,3.0336,3.0319,3.0299,3.0267,3.0241,3.0226,3.0198,3.0181,3.0181,3.0174,3.0174,3.0171,3.0215,3.0223,3.0175,3.0175,3.0175,3.0175,3.0175,3.0175,3.042,3.0391,3.0389,3.0354,3.0345,3.032,3.0309,3.0295,3.0282,3.0248,3.0227,3.0219,3.0202,3.0174,3.0149,3.0144,3.0134,3.0126,3.0122,3.0163,3.0168,3.0173,3.0181,3.0124,3.0124,3.0081,3.008,3.008]}]]